Location: Newark
(49.8969°N, 3.3422°E)
Time: 16:21:59
(UTC+00:00)

Vanguard 1 Rocket - Pass Details

Date: 21 January 2020
Orbit: 650 x 4226 km, 34.3° (Epoch: 17 February)

Event Time Altitude Azimuth Distance (km) Brightness Sun altitude
Rises 16:59:34 0° 275° (W) 6,905 13.1 -6.2°
Reaches altitude 10° 17:05:03 10° 264° (W) 6,371 13.2 -7.0°
Maximum altitude 17:20:28 25° 220° (SW) 6,038 12.3 -9.3°
Drops below altitude 10° 17:38:23 10° 176° (S) 7,332 12.2 -12.1°
Sets 17:45:41 0° 164° (SSE) 8,106 12.2 -13.2°
